Reflectivity
-20 -20 13 14 4 -18 11 15 7 -20 -20 -5 7 16 21 3 -11 20 24 -20 -20 13 21 -20 -20 -13 3 -12 -8 -19 20 -20 -20 -13 -15 -0 -20 -8 -3 1 -20 -20 -14 -17 -12 -20 -20
-20 -19 -10 17 -20 9 12 -15 6 -14 5 2 19 16 18 21 5 -19 -20 21 -19 1 -6 -20 -15 -20 -20 -7 -20 -7 -9 -20 7 -4 -15 -20 -20 -20 -20 10 5 -20 -20 -10 -10 -20 -18
-20 -20 -3 9 3 -19 4 3 5 -1 3 17 11 4 4 21 16 -20 3 1 -20 -5 -20 -20 -20 -20 5 -20 -20 15 -20 -20 14 31 26 -20 -20 -20 -20 -5 -20 -18 -17 -20 -20 -20 1
-20 -1 3 -16 -0 -19 2 8 -20 7 3 9 7 8 17 5 21 6 -20 -20 -8 -20 -20 -20 -20 -15 -17 -20 -20 -20 -20 -5 -17 5 17 -20 -17 -20 -20 -20 -10 7 -11 -15 -20 -14 13
-20 -20 -9 -20 -12 -20 1 6 4 5 8 10 4 6 -5 2 -2 22 -20 -20 -20 -20 -20 -20 -1 -2 -20 -20 -20 -20 -20 20 -9 16 -20 19 -20 -20 -4 17 14 21 -18 -17 -20 -20 13
-20 -20 -8 -16 -4 -20 -1 4 5 11 6 10 12 11 -5 -2 -20 -9 -20 -20 -20 -20 -16 -20 12 1 -8 -20 -20 -20 -20 14 22 21 29 27 10 22 9 5 -7 -16 -20 -20 -20 -20 2
-20 -20 1 -20 -20 -20 -20 -8 16 15 9 12 9 4 -20 -20 -20 -6 -20 -20 -20 24 21 23 10 -20 -20 -20 -19 -20 -20 7 -3 26 20 20 -16 -7 -20 -20 -20 -20 -20 -20 -20 -20 7
-20 -20 -5 -20 -20 -20 -20 -20 3 5 2 10 -2 7 -12 -20 -20 -4 -17 -20 -20 -20 -8 -20 -20 -20 25 -7 -1 24 27 26 31 30 38 16 -4 -20 -18 -20 -20 25 8 -20 -16 -20 -20
-20 -20 -7 -20 -20 -20 -20 -20 -20 -15 -6 5 -4 4 -20 -20 -20 -15 -1 -13 -20 -19 20 -8 15 8 18 19 20 37 23 32 19 44 18 -12 -14 -20 -20 -20 -20 14 -20 -20 -19 -20 -20
-20 -20 -20 -20 -20 -20 -20 -20 -20 -13 5 2 -15 -4 -15 -20 -20 -20 -20 -20 -20 -20 16 4 8 18 24 9 11 18 41 27 14 -11 12 0 9 -20 6 -16 -20 -12 -20 1 -20 -20 -20
-20 -20 -20 -20 -20 -20 -20 -20 -20 -6 -20 -15 11 -20 -20 -20 -20 -20 -20 -20 -20 -20 -19 11 28 31 41 32 17 30 17 30 16 9 -18 2 -15 -20 -20 -18 -2 -9 -20 -20 -20 -20 -20
-20 -20 -20 -20 -20 -20 -20 -20 -20 -20 -20 0 11 -20 -20 -20 -11 -20 -20 -20 -20 -12 14 28 30 20 14 -6 3 -2 1 24 -10 -20 -19 -12 17 10 12 35 28 -12 -12 -20 -20 -3 -14
-20 -20 -20 -20 -16 -20 -20 -20 -20 -20 -20 -15 -20 -20 -20 -20 -20 -20 -20 -20 -20 -12 -20 -20 -6 37 19 33 27 24 6 25 -7 -20 -20 -20 -16 -6 26 43 38 24 -4 -1 10 -18 -20
-20 -20 -20 -20 11 -20 -20 -20 -20 -20 -20 -20 -20 -20 -20 -20 -20 5 -20 -9 -20 -16 -4 -20 -9 10 0 13 19 31 30 10 3 -11 -5 -20 3 0 -20 7 12 -2 -15 -19 -20 -17 -20
-20 -20 -20 -20 -20 -20 -20 -20 -20 -20 -20 -20 -20 -20 -20 -20 -20 -20 -20 -20 -12 -20 -20 -11 -13 -0 -13 -20 -14 4 6 8 18 17 22 12 -7 2 15 -9 9 -19 -16 -20 -20 -20 -20
-20 -20 -20 -20 -20 -20 -20 -20 -20 -20 -20 -20 -20 -20 -20 -20 -20 -20 -20 -20 -10 -20 -20 -20 -6 -20 1 -18 -19 -6 -9 -20 6 11 16 9 14 27 29 24 22 18 -5 -20 -20 -20 -20
-20 -20 -20 -20 -20 -20 -20 -20 -20 -20 -20 -20 -20 -20 -20 -20 -20 -20 -20 -20 -13 -20 -20 -20 -20 -20 -20 -20 -11 -16 -20 -20 -20 -20 -20 -20 -17 12 16 28 16 25 31 -20 -20 -20 -20
-20 -20 -20 -20 -20 -20 -20 -20 -20 -20 -20 -20 -20 -20 -20 -20 -20 -16 -20 -20 -20 -20 -20 -20 -20 -20 -20 -20 -12 -20 -19 -20 -20 -20 -20 -20 -20 -20 -3 -20 -19 -20 -18 16 7 -20 -20
-20 -20 -20 -20 -20 -20 -20 -20 -20 -20 -20 -20 -20 -20 -20 -20 -17 -20 -20 -20 -20 -20 -20 -20 -20 -20 -20 -20 -19 -20 -20 -20 -20 -20 -20 -20 -20 -20 -20 -20 -20 -20 -20 -8 -20 -20 6
-20 -20 -20 -20 -20 -20 -20 -20 -20 -20 -20 -20 -20 -20 -20 -20 -20 -20 -18 -20 -20 -20 -20 -20 -20 -20 -20 -20 -20 -20 -20 -20 -20 -20 -20 -20 -20 -20 -20 -20 -20 -20 -20 -20 -20 -20 -20
-20 -20 -20 -20 -20 -20 -20 -20 -20 -20 -20 -20 -20 -20 -20 -15 -20 -20 -20 -20 -20 -20 -20 -20 -20 -20 -20 -20 -20 -20 -20 -20 -20 -20 -20 -20 -20 -20 -20 -20 -20 -20 -20 -20 -20 -20 -20
-20 -20 -20 -20 -20 -20 -20 -20 -20 -20 -20 -20 -20 -20 -20 -20 -20 -20 -20 2 -20 -20 -20 -20 -20 -20 -20 -20 -20 -20 -20 -20 -20 -20 -20 -20 -20 -20 -20 -20 -20 -20 -20 -20 -20 -20 -20
-20 -20 -20 -20 -20 -20 -20 -20 -20 -20 -20 -20 -20 -20 -20 -20 -20 -20 3 -20 -20 -20 -20 -20 -20 -20 -20 -20 -20 -20 -20 -20 -20 -20 -20 -20 -20 -20 -20 -20 -20 -20 -20 -20 -20 -20 -20
-20 -20 -20 -20 -20 -20 -20 -20 -20 -20 -20 -20 -19 -20 -17 -20 -20 -15 -18 -20 -20 -9 6 -20 -20 -20 -20 -20 -20 -20 -20 -20 -20 -20 -20 -20 -10 -20 -20 -20 -20 -20 -20 -20 -20 -20 -20
-20 -20 -20 -20 -20 -20 -20 -20 -20 -20 -20 -20 -20 -16 -19 -20 -20 -20 -20 -5 -20 -18 -20 -20 -8 -20 -20 -20 -12 -16 -17 -20 -20 -20 -20 -20 -13 -17 -20 -20 -20 -20 -20 -20 -20 -20 -20
-15 -20 -20 -20 -20 -20 -18 -20 -20 -20 -20 -20 -20 -20 -6 -19 -20 -20 -20 -20 -3 -20 -4 10 -20 -20 -20 -15 -9 -19 -20 -20 -7 -20 -20 -20 -20 -15 -20 -20 -20 -20 -20 -20 -20 -20 -20
-4 -20 -11 -19 -20 -20 -20 -20 -20 -20 -20 -20 -20 -20 -20 -20 -20 -20 -20 -14 -8 9 -12 25 -15 -20 -20 3 0 14 -5 -20 -20 -20 -20 -14 -11 -20 -20 -16 -20 -20 -20 -20 -14 -20 -20
-8 -19 4 -14 -20 -20 -20 -20 -20 -20 -2 -20 -20 -20 -20 -20 -20 -20 -20 -20 -20 -17 21 15 23 -13 -17 13 5 -20 -20 -9 -20 -20 -20 -20 -15 -19 -19 -5 -20 -20 -20 -20 -20 -20 -20
14 12 -14 -15 -20 -20 -20 -20 -20 -20 -18 17 2 -10 -19 12 -20 -20 -20 -20 -20 -20 -9 21 25 -17 22 2 -19 -20 -18 -20 -20 -19 -20 -20 -20 -20 -20 -20 -20 -20 -20 -20 -20 -20 -20
Wind_Speed
16 17 19 20 22 22 23 27 20 23 23 25 25 23 21 17 16 16 14 12 9 10 8 6 6 4 3 8 12 17 6 13 17 17 18 14 16 17 13 12 12 17 13 15 4 5 4
16 18 20 21 21 23 24 24 24 24 25 25 27 25 23 19 15 11 11 7 8 9 9 3 6 1 6 13 12 12 5 3 13 18 19 17 11 15 9 7 14 10 15 7 6 4 1
16 18 20 21 22 23 23 23 23 24 25 27 25 25 24 22 13 11 10 8 9 6 7 4 4 5 9 14 7 8 6 5 5 19 17 17 16 15 3 8 10 2 10 10 7 8 3
16 18 19 20 21 22 22 23 23 25 26 26 27 26 23 20 13 9 7 7 7 6 8 6 3 5 7 8 13 16 6 3 7 10 16 15 16 2 5 4 5 4 4 7 8 11 7
16 18 19 20 21 22 21 22 23 24 26 26 27 27 25 23 16 7 4 5 8 8 8 6 4 5 8 4 11 12 10 3 6 11 11 14 13 3 5 5 7 8 7 13 11 9 5
15 17 18 20 21 22 22 22 23 24 26 26 27 25 24 25 10 1 3 6 7 3 5 5 2 3 7 9 7 12 5 5 8 10 11 11 5 7 7 8 12 16 14 13 15 18 14
14 16 18 20 21 22 23 23 23 24 24 25 26 24 20 21 14 6 2 4 2 2 3 3 3 10 9 12 2 7 4 3 4 11 9 13 7 17 22 14 11 12 13 14 14 11 18
14 16 18 19 20 21 22 23 23 22 23 24 23 22 19 15 11 7 6 5 7 2 4 3 5 6 3 5 3 8 11 8 7 8 15 10 10 11 14 14 16 7 12 17 3 12 10
14 15 17 19 20 21 22 22 22 22 22 23 23 22 18 14 14 3 8 8 4 6 2 5 4 6 5 4 4 7 11 8 10 18 15 9 4 6 11 12 13 14 12 13 6 6 4
13 15 16 18 20 21 22 22 22 22 21 21 21 21 18 18 7 3 3 7 5 3 1 6 4 2 4 6 3 5 2 4 4 14 9 5 4 11 6 9 16 11 9 8 10 6 4
13 14 16 18 19 21 22 22 23 21 21 21 21 20 17 14 8 2 1 3 2 3 3 11 4 4 2 3 7 3 3 4 4 10 5 3 3 8 5 8 12 4 7 8 8 7 1
11 13 15 17 19 20 22 22 23 23 22 22 21 16 16 6 4 1 4 5 3 1 7 6 5 6 4 11 4 4 6 5 3 10 14 5 2 2 2 4 6 7 8 9 2 1 2
10 13 15 17 19 21 22 23 24 24 24 23 24 14 7 5 5 4 4 2 1 7 0 8 5 8 6 5 6 7 7 5 3 5 3 3 2 5 2 6 2 6 9 4 2 2 5
10 12 15 17 19 21 23 24 24 24 24 23 20 10 3 5 2 3 2 2 9 2 3 3 5 5 5 3 5 10 5 6 8 7 4 3 3 2 3 1 6 3 2 3 6 6 5
9 12 14 16 18 21 24 25 26 26 24 24 16 3 2 2 1 2 5 7 3 1 3 5 5 3 3 6 4 2 10 6 3 2 3 5 2 1 4 2 3 3 3 2 3 3 5
8 11 14 15 18 20 23 25 27 28 27 20 3 2 1 2 2 3 2 4 1 4 6 8 4 2 6 4 2 3 4 1 8 10 9 6 4 2 3 2 4 1 3 2 1 2 3
7 10 13 16 17 19 22 26 28 29 29 19 3 3 3 3 1 2 4 2 1 2 3 5 6 3 4 3 2 3 5 1 1 3 6 4 3 5 9 7 8 4 1 3 2 1 1
5 10 12 15 16 18 21 25 27 29 28 7 3 2 3 5 3 2 1 3 1 2 1 1 3 4 3 2 1 3 5 6 5 4 2 4 4 3 2 2 2 3 3 7 3 3 2
5 8 11 13 16 18 20 22 25 27 24 6 5 3 3 2 1 1 2 3 3 3 2 3 1 3 3 1 1 2 4 1 2 5 4 3 2 3 2 1 2 2 3 3 6 4 2
5 6 10 12 14 17 18 21 24 28 24 6 4 4 4 2 1 5 3 3 3 3 3 2 0 3 3 3 2 4 5 1 2 4 5 5 1 1 2 3 4 4 6 6 5 3 3
6 7 8 11 14 16 17 20 24 27 28 4 3 3 3 4 3 7 4 7 6 2 3 2 3 5 5 3 3 4 7 5 4 3 2 3 1 3 2 2 2 4 5 7 6 5 5
5 6 7 8 11 14 15 16 20 25 29 3 5 6 6 6 8 7 2 5 7 2 2 3 3 1 2 3 3 2 4 5 5 5 2 2 1 3 3 1 3 5 7 8 8 9 10
6 6 5 7 9 12 13 13 17 20 17 4 5 2 2 7 6 4 3 7 7 5 3 4 7 2 5 3 5 5 6 4 3 5 5 5 4 2 1 2 4 7 12 13 7 7 10
8 7 6 6 8 9 11 11 11 13 14 1 1 3 2 5 7 8 11 10 11 11 7 3 2 5 2 2 2 3 2 3 4 2 2 4 6 2 2 2 1 5 3 3 14 9 9
11 9 7 6 8 8 11 10 7 8 10 3 2 2 3 5 7 11 11 11 10 10 6 8 2 4 3 2 1 3 1 3 3 1 5 1 4 3 2 4 7 6 4 3 7 9 12
12 10 9 8 8 8 9 10 8 6 5 4 2 2 2 2 0 9 8 9 8 7 6 4 1 2 2 2 2 4 4 4 4 5 3 1 2 3 2 2 3 3 4 1 2 2 4
15 13 11 11 10 8 7 9 9 7 5 3 2 1 3 4 5 6 4 4 6 6 3 5 5 4 3 2 2 2 2 3 4 5 5 3 3 4 4 2 6 5 6 1 2 3 5
16 15 15 14 11 10 8 9 9 9 7 2 3 4 2 4 9 7 10 10 8 4 4 5 2 2 3 3 4 3 2 5 3 3 7 7 5 4 4 3 7 4 2 2 3 5 5
16 15 15 13 13 11 9 8 9 10 11 7 3 4 3 4 7 12 13 15 14 8 2 5 8 8 5 4 4 3 4 2 4 3 3 4 5 5 6 6 3 5 4 4 3 3 3
Wind_Direction
353 352 353 354 351 351 348 352 348 345 338 336 331 334 326 317 315 313 311 292 294 302 302 330 294 323 237 220 248 291 3 201 193 199 203 189 203 189 196 208 202 221 261 227 241 73 308
349 352 354 356 354 353 355 349 349 346 341 336 337 333 324 310 305 306 312 318 297 302 315 322 305 282 234 253 261 266 250 174 222 193 207 198 211 202 211 194 220 214 240 272 160 135 268
352 353 357 354 354 355 356 347 352 346 344 343 342 344 335 331 299 308 295 308 317 292 302 313 285 245 265 240 293 64 67 343 307 212 203 211 222 205 172 214 251 333 201 268 211 138 135
352 353 356 356 354 356 355 351 349 348 349 347 349 344 343 337 314 286 304 305 317 309 295 279 227 244 256 263 250 264 176 344 299 272 229 201 219 313 186 284 147 186 169 200 199 179 159
353 353 355 355 355 355 357 351 351 349 350 352 351 350 348 339 325 278 255 295 290 281 273 263 232 217 265 234 227 251 249 208 263 265 226 241 205 187 207 195 185 194 187 209 199 189 191
351 354 354 352 357 356 353 351 351 352 352 353 353 357 356 357 348 193 220 262 302 272 230 152 192 186 295 292 276 206 104 176 237 237 200 220 134 186 192 184 192 184 207 208 213 196 196
352 352 352 355 356 354 353 351 352 354 351 355 352 358 2 11 38 56 270 229 212 153 268 310 342 286 309 340 135 181 77 128 286 193 179 173 156 198 192 192 203 207 193 235 201 177 189
351 353 353 355 354 354 355 352 352 351 352 353 354 356 354 339 358 334 301 44 44 343 313 0 319 299 359 3 281 129 144 194 202 138 159 148 203 194 186 193 229 242 244 217 247 151 189
347 354 353 353 354 353 352 355 350 351 354 352 351 349 351 326 327 341 56 34 12 2 16 332 335 352 47 19 271 114 181 212 164 150 156 146 130 179 196 207 222 231 250 187 153 121 318
346 353 350 355 353 352 352 350 352 349 351 349 347 345 342 326 277 305 58 352 334 355 297 359 5 61 179 221 57 14 78 313 235 152 141 136 132 170 171 241 213 216 232 170 125 130 219
348 349 350 354 352 350 351 349 349 350 346 344 346 341 331 328 310 16 288 328 269 221 67 335 328 181 249 106 155 352 11 39 190 96 106 45 130 167 160 267 231 232 115 91 125 199 91
342 347 349 351 352 349 349 349 348 348 345 341 342 336 330 313 246 26 311 334 280 213 43 342 312 360 31 35 57 14 81 70 69 74 58 48 45 68 161 303 318 235 107 84 77 194 244
339 345 347 350 351 349 348 349 348 347 344 340 335 331 313 314 333 345 321 295 258 45 349 344 329 80 66 62 35 81 82 77 116 108 80 136 34 336 97 175 210 231 122 121 164 203 229
334 343 346 347 351 348 347 349 346 344 341 338 331 329 235 256 298 303 258 281 55 55 358 257 292 58 79 143 64 103 94 55 40 70 86 69 2 311 344 129 184 217 171 166 195 184 161
332 341 345 345 349 350 348 347 347 344 341 336 316 171 230 85 314 240 259 50 12 294 257 316 317 18 87 87 120 153 94 100 109 194 148 163 143 156 261 175 275 147 214 351 313 232 102
332 340 346 342 348 353 347 349 347 345 343 339 310 272 192 343 156 244 46 97 220 208 305 324 342 3 109 82 105 131 88 74 147 200 231 156 115 129 144 239 349 123 221 145 319 153 220
330 337 343 343 348 351 352 350 350 347 342 321 259 309 146 111 182 53 82 92 226 360 341 342 349 349 78 100 354 65 51 129 31 187 243 172 109 172 161 201 165 160 229 275 275 261 163
324 334 344 343 345 352 355 353 351 349 346 346 299 334 153 140 22 118 177 202 295 315 201 292 301 340 356 44 120 74 90 48 352 310 98 15 95 161 138 44 328 313 185 181 158 192 112
310 331 336 344 346 349 355 356 348 349 356 323 324 296 192 158 15 90 209 205 284 322 28 330 134 339 318 50 68 81 94 185 29 32 34 160 153 109 167 180 176 226 244 302 78 24 236
292 315 334 343 345 350 352 354 352 346 348 326 317 334 348 236 295 326 293 231 234 171 277 295 90 260 219 191 257 145 125 32 342 72 340 331 149 18 147 135 118 189 198 194 115 133 198
282 311 336 343 351 350 353 354 356 346 341 324 2 60 14 327 22 331 308 309 283 238 207 256 210 259 231 189 196 178 114 147 189 169 252 339 160 31 32 76 143 195 210 201 169 218 160
258 286 320 333 344 348 350 355 358 355 338 89 12 350 353 293 290 300 263 297 300 296 229 219 248 202 263 285 30 89 172 195 178 175 214 107 120 73 299 140 279 260 249 221 203 217 261
230 262 297 315 335 342 341 352 1 7 354 22 354 315 287 290 312 307 350 352 343 339 182 257 321 310 230 61 22 346 33 24 36 155 209 155 127 121 256 186 293 287 223 211 195 190 199
230 247 264 296 312 332 335 347 2 9 9 1 80 287 305 301 328 318 342 323 307 302 310 328 282 280 72 204 225 227 114 119 138 68 183 187 141 131 227 175 286 222 74 203 205 200 211
226 238 250 270 295 317 327 335 350 358 3 344 87 24 346 288 320 298 334 317 306 286 246 266 125 6 172 246 169 129 153 206 173 91 209 322 148 184 183 209 273 150 179 175 157 233 212
226 235 243 253 269 292 305 313 320 339 353 316 84 291 200 281 5 348 322 295 290 299 292 204 98 278 355 246 178 194 196 228 172 161 287 226 354 142 70 266 256 110 149 17 161 164 20
226 231 235 238 247 256 281 301 303 310 314 303 292 41 282 252 259 346 299 320 330 327 277 286 163 193 231 233 174 220 220 177 198 212 160 189 194 193 230 253 296 138 128 57 216 135 88
223 227 234 238 241 239 256 283 295 295 282 250 292 175 213 274 294 274 291 290 301 287 294 337 258 262 170 229 178 216 215 203 277 216 165 181 182 185 201 196 261 125 83 195 132 104 92
224 229 233 236 243 244 243 261 273 277 269 265 246 212 225 239 269 298 277 272 268 273 215 287 313 300 211 200 217 172 219 137 237 229 145 197 201 180 187 217 161 183 117 124 129 108 106